<?xml version="1.0" encoding="UTF-8" standalone="no" ?>
<gpx xmlns="http://www.topografix.com/GPX/1/1" creator="MapSource 6.11.6" version="1.1" xmlns:xsi="http://www.w3.org/2001/XMLSchema-instance" xsi:schemaLocation="http://www.topografix.com/GPX/1/1 http://www.topografix.com/GPX/1/1/gpx.xsd">

  <metadata>
    <link href="http://www.garmin.com">
      <text>Garmin International</text>
    </link>
    <time>2008-10-13T15:33:39Z</time>
    <bounds maxlat="50.197901" maxlon="6.861465" minlat="50.092736" minlon="6.806204"/>
  </metadata>

  <trk>
    <name>Etappe 11 Eifelsteig</name>
    <extensions>
      <gpxx:TrackExtension xmlns:gpxx="http://www.garmin.com/xmlschemas/GpxExtensions/v3" xmlns:xsi="http://www.w3.org/2001/XMLSchema-instance" xsi:schemaLocation="http://www.garmin.com/xmlschemas/GpxExtensions/v3 http://www.garmin.com/xmlschemas/GpxExtensions/v3/GpxExtensionsv3.xsd">
        <gpxx:DisplayColor>White</gpxx:DisplayColor>
      </gpxx:TrackExtension>
    </extensions>
    <trkseg>
      <trkpt lat="50.197901" lon="6.829692">
        <ele>435.000000</ele>
        <time>2008-07-14T11:59:39Z</time>
      </trkpt>
      <trkpt lat="50.197901" lon="6.829692">
        <time>2008-07-14T11:59:39Z</time>
      </trkpt>
      <trkpt lat="50.197702" lon="6.829884">
        <time>2008-07-14T11:59:39Z</time>
      </trkpt>
      <trkpt lat="50.197702" lon="6.829884">
        <time>2008-07-14T11:59:39Z</time>
      </trkpt>
      <trkpt lat="50.197494" lon="6.830091">
        <time>2008-07-14T11:59:39Z</time>
      </trkpt>
      <trkpt lat="50.197286" lon="6.830255">
        <time>2008-07-14T11:59:39Z</time>
      </trkpt>
      <trkpt lat="50.197286" lon="6.830255">
        <time>2008-07-14T11:59:39Z</time>
      </trkpt>
      <trkpt lat="50.196762" lon="6.830596">
        <time>2008-07-14T11:59:39Z</time>
      </trkpt>
      <trkpt lat="50.196762" lon="6.830596">
        <time>2008-07-14T11:59:39Z</time>
      </trkpt>
      <trkpt lat="50.196435" lon="6.831123">
        <time>2008-07-14T11:59:39Z</time>
      </trkpt>
      <trkpt lat="50.196178" lon="6.831805">
        <time>2008-07-14T11:59:39Z</time>
      </trkpt>
      <trkpt lat="50.196178" lon="6.831805">
        <time>2008-07-14T11:59:39Z</time>
      </trkpt>
      <trkpt lat="50.195794" lon="6.831434">
        <time>2008-07-14T11:59:39Z</time>
      </trkpt>
      <trkpt lat="50.195794" lon="6.831434">
        <time>2008-07-14T11:59:39Z</time>
      </trkpt>
      <trkpt lat="50.195417" lon="6.831315">
        <time>2008-07-14T11:59:39Z</time>
      </trkpt>
      <trkpt lat="50.194932" lon="6.831377">
        <time>2008-07-14T11:59:39Z</time>
      </trkpt>
      <trkpt lat="50.194932" lon="6.831377">
        <time>2008-07-14T11:59:39Z</time>
      </trkpt>
      <trkpt lat="50.194722" lon="6.831751">
        <time>2008-07-14T11:59:39Z</time>
      </trkpt>
      <trkpt lat="50.194722" lon="6.831751">
        <time>2008-07-14T11:59:39Z</time>
      </trkpt>
      <trkpt lat="50.194494" lon="6.832153">
        <time>2008-07-14T11:59:39Z</time>
      </trkpt>
      <trkpt lat="50.194349" lon="6.832319">
        <ele>410.000000</ele>
        <time>2008-07-14T11:59:39Z</time>
      </trkpt>
      <trkpt lat="50.194349" lon="6.832319">
        <time>2008-07-14T11:59:39Z</time>
      </trkpt>
      <trkpt lat="50.194270" lon="6.832051">
        <time>2008-07-14T11:59:39Z</time>
      </trkpt>
      <trkpt lat="50.194120" lon="6.831713">
        <time>2008-07-14T11:59:39Z</time>
      </trkpt>
      <trkpt lat="50.194042" lon="6.831263">
        <time>2008-07-14T11:59:39Z</time>
      </trkpt>
      <trkpt lat="50.194042" lon="6.831263">
        <time>2008-07-14T11:59:39Z</time>
      </trkpt>
      <trkpt lat="50.193630" lon="6.831102">
        <time>2008-07-14T11:59:39Z</time>
      </trkpt>
      <trkpt lat="50.193360" lon="6.831055">
        <time>2008-07-14T11:59:39Z</time>
      </trkpt>
      <trkpt lat="50.193035" lon="6.831246">
        <time>2008-07-14T11:59:39Z</time>
      </trkpt>
      <trkpt lat="50.192820" lon="6.831256">
        <time>2008-07-14T11:59:39Z</time>
      </trkpt>
      <trkpt lat="50.192685" lon="6.831156">
        <time>2008-07-14T11:59:39Z</time>
      </trkpt>
      <trkpt lat="50.192588" lon="6.831000">
        <time>2008-07-14T11:59:39Z</time>
      </trkpt>
      <trkpt lat="50.192588" lon="6.831000">
        <time>2008-07-14T11:59:39Z</time>
      </trkpt>
      <trkpt lat="50.192076" lon="6.830865">
        <time>2008-07-14T11:59:39Z</time>
      </trkpt>
      <trkpt lat="50.191826" lon="6.830637">
        <time>2008-07-14T11:59:39Z</time>
      </trkpt>
      <trkpt lat="50.191478" lon="6.830239">
        <time>2008-07-14T11:59:39Z</time>
      </trkpt>
      <trkpt lat="50.191113" lon="6.829812">
        <time>2008-07-14T11:59:39Z</time>
      </trkpt>
      <trkpt lat="50.191113" lon="6.829812">
        <time>2008-07-14T11:59:39Z</time>
      </trkpt>
      <trkpt lat="50.190721" lon="6.829343">
        <time>2008-07-14T11:59:39Z</time>
      </trkpt>
      <trkpt lat="50.190284" lon="6.828789">
        <time>2008-07-14T11:59:39Z</time>
      </trkpt>
      <trkpt lat="50.190284" lon="6.828789">
        <time>2008-07-14T11:59:39Z</time>
      </trkpt>
      <trkpt lat="50.189937" lon="6.828335">
        <ele>436.000000</ele>
        <time>2008-07-14T11:59:39Z</time>
      </trkpt>
      <trkpt lat="50.189937" lon="6.828335">
        <time>2008-07-14T11:59:39Z</time>
      </trkpt>
      <trkpt lat="50.189830" lon="6.828194">
        <time>2008-07-14T11:59:39Z</time>
      </trkpt>
      <trkpt lat="50.189626" lon="6.827798">
        <ele>432.000000</ele>
        <time>2008-07-14T11:59:39Z</time>
      </trkpt>
      <trkpt lat="50.189626" lon="6.827798">
        <time>2008-07-14T11:59:39Z</time>
      </trkpt>
      <trkpt lat="50.189401" lon="6.827822">
        <time>2008-07-14T11:59:39Z</time>
      </trkpt>
      <trkpt lat="50.189257" lon="6.827834">
        <time>2008-07-14T11:59:39Z</time>
      </trkpt>
      <trkpt lat="50.189112" lon="6.827957">
        <time>2008-07-14T11:59:39Z</time>
      </trkpt>
      <trkpt lat="50.189012" lon="6.828165">
        <time>2008-07-14T11:59:39Z</time>
      </trkpt>
      <trkpt lat="50.188881" lon="6.828877">
        <time>2008-07-14T11:59:39Z</time>
      </trkpt>
      <trkpt lat="50.188789" lon="6.829170">
        <time>2008-07-14T11:59:39Z</time>
      </trkpt>
      <trkpt lat="50.188789" lon="6.829170">
        <time>2008-07-14T11:59:39Z</time>
      </trkpt>
      <trkpt lat="50.188613" lon="6.829825">
        <time>2008-07-14T11:59:39Z</time>
      </trkpt>
      <trkpt lat="50.188226" lon="6.829986">
        <time>2008-07-14T11:59:39Z</time>
      </trkpt>
      <trkpt lat="50.187677" lon="6.830061">
        <time>2008-07-14T11:59:39Z</time>
      </trkpt>
      <trkpt lat="50.187047" lon="6.830134">
        <time>2008-07-14T11:59:39Z</time>
      </trkpt>
      <trkpt lat="50.186642" lon="6.830127">
        <time>2008-07-14T11:59:39Z</time>
      </trkpt>
      <trkpt lat="50.186569" lon="6.830280">
        <time>2008-07-14T11:59:39Z</time>
      </trkpt>
      <trkpt lat="50.186478" lon="6.830474">
        <time>2008-07-14T11:59:39Z</time>
      </trkpt>
      <trkpt lat="50.186549" lon="6.830573">
        <time>2008-07-14T11:59:39Z</time>
      </trkpt>
      <trkpt lat="50.186549" lon="6.830573">
        <time>2008-07-14T11:59:39Z</time>
      </trkpt>
      <trkpt lat="50.186557" lon="6.830699">
        <time>2008-07-14T11:59:39Z</time>
      </trkpt>
      <trkpt lat="50.186429" lon="6.831075">
        <time>2008-07-14T11:59:39Z</time>
      </trkpt>
      <trkpt lat="50.186184" lon="6.831365">
        <ele>371.000000</ele>
        <time>2008-07-14T11:59:39Z</time>
      </trkpt>
      <trkpt lat="50.186184" lon="6.831365">
        <time>2008-07-14T11:59:39Z</time>
      </trkpt>
      <trkpt lat="50.185910" lon="6.831906">
        <time>2008-07-14T11:59:39Z</time>
      </trkpt>
      <trkpt lat="50.185910" lon="6.831906">
        <time>2008-07-14T11:59:39Z</time>
      </trkpt>
      <trkpt lat="50.185860" lon="6.832634">
        <ele>371.000000</ele>
        <time>2008-07-14T11:59:39Z</time>
      </trkpt>
      <trkpt lat="50.185860" lon="6.832634">
        <time>2008-07-14T11:59:39Z</time>
      </trkpt>
      <trkpt lat="50.185492" lon="6.832529">
        <time>2008-07-14T11:59:39Z</time>
      </trkpt>
      <trkpt lat="50.185439" lon="6.832514">
        <time>2008-07-14T11:59:39Z</time>
      </trkpt>
      <trkpt lat="50.185439" lon="6.832514">
        <time>2008-07-14T11:59:39Z</time>
      </trkpt>
      <trkpt lat="50.185304" lon="6.832484">
        <time>2008-07-14T11:59:39Z</time>
      </trkpt>
      <trkpt lat="50.184960" lon="6.832772">
        <time>2008-07-14T11:59:39Z</time>
      </trkpt>
      <trkpt lat="50.184871" lon="6.832742">
        <time>2008-07-14T11:59:39Z</time>
      </trkpt>
      <trkpt lat="50.184871" lon="6.832742">
        <time>2008-07-14T11:59:39Z</time>
      </trkpt>
      <trkpt lat="50.184799" lon="6.832713">
        <time>2008-07-14T11:59:39Z</time>
      </trkpt>
      <trkpt lat="50.184630" lon="6.832458">
        <time>2008-07-14T11:59:39Z</time>
      </trkpt>
      <trkpt lat="50.184497" lon="6.832218">
        <time>2008-07-14T11:59:39Z</time>
      </trkpt>
      <trkpt lat="50.184497" lon="6.832218">
        <time>2008-07-14T11:59:39Z</time>
      </trkpt>
      <trkpt lat="50.184470" lon="6.832231">
        <time>2008-07-14T11:59:39Z</time>
      </trkpt>
      <trkpt lat="50.184216" lon="6.832507">
        <time>2008-07-14T11:59:39Z</time>
      </trkpt>
      <trkpt lat="50.184216" lon="6.832507">
        <time>2008-07-14T11:59:39Z</time>
      </trkpt>
      <trkpt lat="50.183872" lon="6.832823">
        <time>2008-07-14T11:59:39Z</time>
      </trkpt>
      <trkpt lat="50.183611" lon="6.832874">
        <time>2008-07-14T11:59:39Z</time>
      </trkpt>
      <trkpt lat="50.183611" lon="6.832874">
        <time>2008-07-14T11:59:39Z</time>
      </trkpt>
      <trkpt lat="50.183359" lon="6.832954">
        <time>2008-07-14T11:59:39Z</time>
      </trkpt>
      <trkpt lat="50.182460" lon="6.832854">
        <time>2008-07-14T11:59:39Z</time>
      </trkpt>
      <trkpt lat="50.182370" lon="6.832867">
        <ele>369.000000</ele>
        <time>2008-07-14T11:59:39Z</time>
      </trkpt>
      <trkpt lat="50.182370" lon="6.832867">
        <time>2008-07-14T11:59:39Z</time>
      </trkpt>
      <trkpt lat="50.181713" lon="6.833037">
        <time>2008-07-14T11:59:39Z</time>
      </trkpt>
      <trkpt lat="50.181604" lon="6.833120">
        <time>2008-07-14T11:59:39Z</time>
      </trkpt>
      <trkpt lat="50.181604" lon="6.833120">
        <time>2008-07-14T11:59:39Z</time>
      </trkpt>
      <trkpt lat="50.181451" lon="6.833215">
        <time>2008-07-14T11:59:39Z</time>
      </trkpt>
      <trkpt lat="50.181342" lon="6.833367">
        <time>2008-07-14T11:59:39Z</time>
      </trkpt>
      <trkpt lat="50.181287" lon="6.833450">
        <time>2008-07-14T11:59:39Z</time>
      </trkpt>
      <trkpt lat="50.181188" lon="6.833546">
        <ele>371.000000</ele>
        <time>2008-07-14T11:59:39Z</time>
      </trkpt>
      <trkpt lat="50.181188" lon="6.833546">
        <time>2008-07-14T11:59:39Z</time>
      </trkpt>
      <trkpt lat="50.181385" lon="6.833620">
        <time>2008-07-14T11:59:39Z</time>
      </trkpt>
      <trkpt lat="50.181385" lon="6.833620">
        <time>2008-07-14T11:59:39Z</time>
      </trkpt>
      <trkpt lat="50.181606" lon="6.834198">
        <time>2008-07-14T11:59:39Z</time>
      </trkpt>
      <trkpt lat="50.181606" lon="6.834198">
        <time>2008-07-14T11:59:39Z</time>
      </trkpt>
      <trkpt lat="50.181486" lon="6.834616">
        <time>2008-07-14T11:59:39Z</time>
      </trkpt>
      <trkpt lat="50.181296" lon="6.834724">
        <time>2008-07-14T11:59:39Z</time>
      </trkpt>
      <trkpt lat="50.180893" lon="6.834507">
        <time>2008-07-14T11:59:39Z</time>
      </trkpt>
      <trkpt lat="50.180750" lon="6.834393">
        <time>2008-07-14T11:59:39Z</time>
      </trkpt>
      <trkpt lat="50.180750" lon="6.834393">
        <time>2008-07-14T11:59:39Z</time>
      </trkpt>
      <trkpt lat="50.180430" lon="6.833953">
        <time>2008-07-14T11:59:39Z</time>
      </trkpt>
      <trkpt lat="50.179966" lon="6.833427">
        <time>2008-07-14T11:59:39Z</time>
      </trkpt>
      <trkpt lat="50.179564" lon="6.833042">
        <time>2008-07-14T11:59:39Z</time>
      </trkpt>
      <trkpt lat="50.179116" lon="6.832824">
        <time>2008-07-14T11:59:39Z</time>
      </trkpt>
      <trkpt lat="50.178820" lon="6.832819">
        <time>2008-07-14T11:59:39Z</time>
      </trkpt>
      <trkpt lat="50.178459" lon="6.832939">
        <ele>430.000000</ele>
        <time>2008-07-14T11:59:39Z</time>
      </trkpt>
      <trkpt lat="50.178459" lon="6.832939">
        <time>2008-07-14T11:59:39Z</time>
      </trkpt>
      <trkpt lat="50.178145" lon="6.832793">
        <ele>430.000000</ele>
        <time>2008-07-14T11:59:39Z</time>
      </trkpt>
      <trkpt lat="50.178145" lon="6.832793">
        <time>2008-07-14T11:59:39Z</time>
      </trkpt>
      <trkpt lat="50.177107" lon="6.833405">
        <time>2008-07-14T11:59:39Z</time>
      </trkpt>
      <trkpt lat="50.177107" lon="6.833405">
        <time>2008-07-14T11:59:39Z</time>
      </trkpt>
      <trkpt lat="50.176846" lon="6.833527">
        <time>2008-07-14T11:59:39Z</time>
      </trkpt>
      <trkpt lat="50.176439" lon="6.833842">
        <time>2008-07-14T11:59:39Z</time>
      </trkpt>
      <trkpt lat="50.175885" lon="6.834518">
        <time>2008-07-14T11:59:39Z</time>
      </trkpt>
      <trkpt lat="50.175604" lon="6.834975">
        <time>2008-07-14T11:59:39Z</time>
      </trkpt>
      <trkpt lat="50.175302" lon="6.835642">
        <time>2008-07-14T11:59:39Z</time>
      </trkpt>
      <trkpt lat="50.175009" lon="6.836393">
        <time>2008-07-14T11:59:39Z</time>
      </trkpt>
      <trkpt lat="50.174827" lon="6.836739">
        <time>2008-07-14T11:59:39Z</time>
      </trkpt>
      <trkpt lat="50.174752" lon="6.837116">
        <time>2008-07-14T11:59:39Z</time>
      </trkpt>
      <trkpt lat="50.174750" lon="6.837424">
        <time>2008-07-14T11:59:39Z</time>
      </trkpt>
      <trkpt lat="50.174739" lon="6.837634">
        <time>2008-07-14T11:59:39Z</time>
      </trkpt>
      <trkpt lat="50.174739" lon="6.837634">
        <time>2008-07-14T11:59:39Z</time>
      </trkpt>
      <trkpt lat="50.174806" lon="6.838293">
        <time>2008-07-14T11:59:39Z</time>
      </trkpt>
      <trkpt lat="50.174857" lon="6.838714">
        <time>2008-07-14T11:59:39Z</time>
      </trkpt>
      <trkpt lat="50.174900" lon="6.839051">
        <time>2008-07-14T11:59:39Z</time>
      </trkpt>
      <trkpt lat="50.174900" lon="6.839051">
        <time>2008-07-14T11:59:39Z</time>
      </trkpt>
      <trkpt lat="50.175099" lon="6.840104">
        <time>2008-07-14T11:59:39Z</time>
      </trkpt>
      <trkpt lat="50.175392" lon="6.840697">
        <time>2008-07-14T11:59:39Z</time>
      </trkpt>
      <trkpt lat="50.175710" lon="6.841347">
        <time>2008-07-14T11:59:39Z</time>
      </trkpt>
      <trkpt lat="50.175880" lon="6.841573">
        <time>2008-07-14T11:59:39Z</time>
      </trkpt>
      <trkpt lat="50.175880" lon="6.841573">
        <time>2008-07-14T11:59:39Z</time>
      </trkpt>
      <trkpt lat="50.176387" lon="6.842282">
        <time>2008-07-14T11:59:39Z</time>
      </trkpt>
      <trkpt lat="50.176387" lon="6.842282">
        <time>2008-07-14T11:59:39Z</time>
      </trkpt>
      <trkpt lat="50.175911" lon="6.842232">
        <time>2008-07-14T11:59:39Z</time>
      </trkpt>
      <trkpt lat="50.175616" lon="6.841989">
        <time>2008-07-14T11:59:39Z</time>
      </trkpt>
      <trkpt lat="50.175517" lon="6.841973">
        <time>2008-07-14T11:59:39Z</time>
      </trkpt>
      <trkpt lat="50.175427" lon="6.842014">
        <ele>561.000000</ele>
        <time>2008-07-14T11:59:39Z</time>
      </trkpt>
      <trkpt lat="50.175427" lon="6.842014">
        <time>2008-07-14T11:59:39Z</time>
      </trkpt>
      <trkpt lat="50.175398" lon="6.842209">
        <time>2008-07-14T11:59:39Z</time>
      </trkpt>
      <trkpt lat="50.175388" lon="6.842391">
        <time>2008-07-14T11:59:39Z</time>
      </trkpt>
      <trkpt lat="50.175388" lon="6.842391">
        <time>2008-07-14T11:59:39Z</time>
      </trkpt>
      <trkpt lat="50.175475" lon="6.845318">
        <time>2008-07-14T11:59:39Z</time>
      </trkpt>
      <trkpt lat="50.175475" lon="6.845318">
        <time>2008-07-14T11:59:39Z</time>
      </trkpt>
      <trkpt lat="50.175756" lon="6.844903">
        <time>2008-07-14T11:59:39Z</time>
      </trkpt>
      <trkpt lat="50.175866" lon="6.844625">
        <time>2008-07-14T11:59:39Z</time>
      </trkpt>
      <trkpt lat="50.176018" lon="6.844754">
        <time>2008-07-14T11:59:39Z</time>
      </trkpt>
      <trkpt lat="50.176016" lon="6.845076">
        <time>2008-07-14T11:59:39Z</time>
      </trkpt>
      <trkpt lat="50.176032" lon="6.845370">
        <time>2008-07-14T11:59:39Z</time>
      </trkpt>
      <trkpt lat="50.176032" lon="6.845370">
        <time>2008-07-14T11:59:39Z</time>
      </trkpt>
      <trkpt lat="50.176588" lon="6.845464">
        <time>2008-07-14T11:59:39Z</time>
      </trkpt>
      <trkpt lat="50.177011" lon="6.845527">
        <time>2008-07-14T11:59:39Z</time>
      </trkpt>
      <trkpt lat="50.177601" lon="6.845888">
        <time>2008-07-14T11:59:39Z</time>
      </trkpt>
      <trkpt lat="50.178030" lon="6.846343">
        <time>2008-07-14T11:59:39Z</time>
      </trkpt>
      <trkpt lat="50.178546" lon="6.847038">
        <time>2008-07-14T11:59:39Z</time>
      </trkpt>
      <trkpt lat="50.178676" lon="6.847713">
        <time>2008-07-14T11:59:39Z</time>
      </trkpt>
      <trkpt lat="50.178684" lon="6.847839">
        <ele>499.000000</ele>
        <time>2008-07-14T11:59:39Z</time>
      </trkpt>
      <trkpt lat="50.178684" lon="6.847839">
        <time>2008-07-14T11:59:39Z</time>
      </trkpt>
      <trkpt lat="50.178752" lon="6.848358">
        <time>2008-07-14T11:59:39Z</time>
      </trkpt>
      <trkpt lat="50.178769" lon="6.848526">
        <time>2008-07-14T11:59:39Z</time>
      </trkpt>
      <trkpt lat="50.178769" lon="6.848526">
        <time>2008-07-14T11:59:39Z</time>
      </trkpt>
      <trkpt lat="50.178815" lon="6.849577">
        <time>2008-07-14T11:59:39Z</time>
      </trkpt>
      <trkpt lat="50.178861" lon="6.850600">
        <ele>495.000000</ele>
        <time>2008-07-14T11:59:39Z</time>
      </trkpt>
      <trkpt lat="50.178861" lon="6.850600">
        <time>2008-07-14T11:59:39Z</time>
      </trkpt>
      <trkpt lat="50.178788" lon="6.850878">
        <time>2008-07-14T11:59:39Z</time>
      </trkpt>
      <trkpt lat="50.178568" lon="6.851421">
        <time>2008-07-14T11:59:39Z</time>
      </trkpt>
      <trkpt lat="50.178395" lon="6.851754">
        <time>2008-07-14T11:59:39Z</time>
      </trkpt>
      <trkpt lat="50.178124" lon="6.851875">
        <time>2008-07-14T11:59:39Z</time>
      </trkpt>
      <trkpt lat="50.178124" lon="6.851875">
        <time>2008-07-14T11:59:39Z</time>
      </trkpt>
      <trkpt lat="50.177733" lon="6.852456">
        <time>2008-07-14T11:59:39Z</time>
      </trkpt>
      <trkpt lat="50.177434" lon="6.852730">
        <time>2008-07-14T11:59:39Z</time>
      </trkpt>
      <trkpt lat="50.177082" lon="6.852934">
        <time>2008-07-14T11:59:39Z</time>
      </trkpt>
      <trkpt lat="50.176488" lon="6.853064">
        <time>2008-07-14T11:59:39Z</time>
      </trkpt>
      <trkpt lat="50.175904" lon="6.852955">
        <time>2008-07-14T11:59:39Z</time>
      </trkpt>
      <trkpt lat="50.175205" lon="6.852691">
        <time>2008-07-14T11:59:39Z</time>
      </trkpt>
      <trkpt lat="50.174865" lon="6.852531">
        <time>2008-07-14T11:59:39Z</time>
      </trkpt>
      <trkpt lat="50.174865" lon="6.852531">
        <time>2008-07-14T11:59:39Z</time>
      </trkpt>
      <trkpt lat="50.174247" lon="6.852198">
        <time>2008-07-14T11:59:39Z</time>
      </trkpt>
      <trkpt lat="50.173790" lon="6.852022">
        <time>2008-07-14T11:59:39Z</time>
      </trkpt>
      <trkpt lat="50.173761" lon="6.852259">
        <ele>505.000000</ele>
        <time>2008-07-14T11:59:39Z</time>
      </trkpt>
      <trkpt lat="50.173761" lon="6.852259">
        <time>2008-07-14T11:59:39Z</time>
      </trkpt>
      <trkpt lat="50.173742" lon="6.852427">
        <time>2008-07-14T11:59:39Z</time>
      </trkpt>
      <trkpt lat="50.173902" lon="6.852570">
        <time>2008-07-14T11:59:39Z</time>
      </trkpt>
      <trkpt lat="50.173543" lon="6.852507">
        <time>2008-07-14T11:59:39Z</time>
      </trkpt>
      <trkpt lat="50.172923" lon="6.852440">
        <time>2008-07-14T11:59:39Z</time>
      </trkpt>
      <trkpt lat="50.172923" lon="6.852440">
        <time>2008-07-14T11:59:39Z</time>
      </trkpt>
      <trkpt lat="50.172689" lon="6.852604">
        <time>2008-07-14T11:59:39Z</time>
      </trkpt>
      <trkpt lat="50.172301" lon="6.852751">
        <time>2008-07-14T11:59:39Z</time>
      </trkpt>
      <trkpt lat="50.171753" lon="6.852741">
        <time>2008-07-14T11:59:39Z</time>
      </trkpt>
      <trkpt lat="50.171357" lon="6.852706">
        <time>2008-07-14T11:59:39Z</time>
      </trkpt>
      <trkpt lat="50.171357" lon="6.852706">
        <time>2008-07-14T11:59:39Z</time>
      </trkpt>
      <trkpt lat="50.170838" lon="6.852333">
        <time>2008-07-14T11:59:39Z</time>
      </trkpt>
      <trkpt lat="50.170453" lon="6.852242">
        <time>2008-07-14T11:59:39Z</time>
      </trkpt>
      <trkpt lat="50.170183" lon="6.852293">
        <time>2008-07-14T11:59:39Z</time>
      </trkpt>
      <trkpt lat="50.170057" lon="6.852277">
        <time>2008-07-14T11:59:39Z</time>
      </trkpt>
      <trkpt lat="50.170057" lon="6.852277">
        <time>2008-07-14T11:59:39Z</time>
      </trkpt>
      <trkpt lat="50.169732" lon="6.852425">
        <time>2008-07-14T11:59:39Z</time>
      </trkpt>
      <trkpt lat="50.169415" lon="6.852672">
        <time>2008-07-14T11:59:39Z</time>
      </trkpt>
      <trkpt lat="50.169180" lon="6.852891">
        <time>2008-07-14T11:59:39Z</time>
      </trkpt>
      <trkpt lat="50.168528" lon="6.853580">
        <time>2008-07-14T11:59:39Z</time>
      </trkpt>
      <trkpt lat="50.168021" lon="6.854047">
        <time>2008-07-14T11:59:39Z</time>
      </trkpt>
      <trkpt lat="50.167740" lon="6.854378">
        <time>2008-07-14T11:59:39Z</time>
      </trkpt>
      <trkpt lat="50.167728" lon="6.854699">
        <time>2008-07-14T11:59:39Z</time>
      </trkpt>
      <trkpt lat="50.167728" lon="6.854699">
        <time>2008-07-14T11:59:39Z</time>
      </trkpt>
      <trkpt lat="50.167249" lon="6.855166">
        <time>2008-07-14T11:59:39Z</time>
      </trkpt>
      <trkpt lat="50.167058" lon="6.855401">
        <ele>438.000000</ele>
        <time>2008-07-14T11:59:39Z</time>
      </trkpt>
      <trkpt lat="50.167058" lon="6.855401">
        <time>2008-07-14T11:59:39Z</time>
      </trkpt>
      <trkpt lat="50.166604" lon="6.856009">
        <time>2008-07-14T11:59:39Z</time>
      </trkpt>
      <trkpt lat="50.166141" lon="6.856588">
        <time>2008-07-14T11:59:39Z</time>
      </trkpt>
      <trkpt lat="50.165768" lon="6.857170">
        <time>2008-07-14T11:59:39Z</time>
      </trkpt>
      <trkpt lat="50.165768" lon="6.857170">
        <time>2008-07-14T11:59:39Z</time>
      </trkpt>
      <trkpt lat="50.165953" lon="6.857733">
        <time>2008-07-14T11:59:39Z</time>
      </trkpt>
      <trkpt lat="50.166057" lon="6.858308">
        <time>2008-07-14T11:59:39Z</time>
      </trkpt>
      <trkpt lat="50.165961" lon="6.859048">
        <time>2008-07-14T11:59:39Z</time>
      </trkpt>
      <trkpt lat="50.165768" lon="6.859633">
        <ele>422.000000</ele>
        <time>2008-07-14T11:59:39Z</time>
      </trkpt>
      <trkpt lat="50.165768" lon="6.859633">
        <time>2008-07-14T11:59:39Z</time>
      </trkpt>
      <trkpt lat="50.165630" lon="6.860050">
        <time>2008-07-14T11:59:39Z</time>
      </trkpt>
      <trkpt lat="50.165564" lon="6.860427">
        <time>2008-07-14T11:59:39Z</time>
      </trkpt>
      <trkpt lat="50.165518" lon="6.860678">
        <time>2008-07-14T11:59:39Z</time>
      </trkpt>
      <trkpt lat="50.165518" lon="6.860678">
        <time>2008-07-14T11:59:39Z</time>
      </trkpt>
      <trkpt lat="50.165370" lon="6.861207">
        <time>2008-07-14T11:59:39Z</time>
      </trkpt>
      <trkpt lat="50.165171" lon="6.861302">
        <time>2008-07-14T11:59:39Z</time>
      </trkpt>
      <trkpt lat="50.164461" lon="6.861387">
        <time>2008-07-14T11:59:39Z</time>
      </trkpt>
      <trkpt lat="50.164461" lon="6.861387">
        <time>2008-07-14T11:59:39Z</time>
      </trkpt>
      <trkpt lat="50.164224" lon="6.860487">
        <time>2008-07-14T11:59:39Z</time>
      </trkpt>
      <trkpt lat="50.164224" lon="6.860487">
        <time>2008-07-14T11:59:39Z</time>
      </trkpt>
      <trkpt lat="50.163844" lon="6.860900">
        <time>2008-07-14T11:59:39Z</time>
      </trkpt>
      <trkpt lat="50.163372" lon="6.861465">
        <time>2008-07-14T11:59:39Z</time>
      </trkpt>
      <trkpt lat="50.163372" lon="6.861465">
        <time>2008-07-14T11:59:39Z</time>
      </trkpt>
      <trkpt lat="50.163184" lon="6.861420">
        <time>2008-07-14T11:59:39Z</time>
      </trkpt>
      <trkpt lat="50.163022" lon="6.861403">
        <time>2008-07-14T11:59:39Z</time>
      </trkpt>
      <trkpt lat="50.162933" lon="6.861233">
        <time>2008-07-14T11:59:39Z</time>
      </trkpt>
      <trkpt lat="50.163071" lon="6.860886">
        <time>2008-07-14T11:59:39Z</time>
      </trkpt>
      <trkpt lat="50.163073" lon="6.860592">
        <time>2008-07-14T11:59:39Z</time>
      </trkpt>
      <trkpt lat="50.163073" lon="6.860592">
        <time>2008-07-14T11:59:39Z</time>
      </trkpt>
      <trkpt lat="50.162631" lon="6.860724">
        <time>2008-07-14T11:59:39Z</time>
      </trkpt>
      <trkpt lat="50.162497" lon="6.860680">
        <time>2008-07-14T11:59:39Z</time>
      </trkpt>
      <trkpt lat="50.162497" lon="6.860680">
        <time>2008-07-14T11:59:39Z</time>
      </trkpt>
      <trkpt lat="50.161995" lon="6.860489">
        <time>2008-07-14T11:59:39Z</time>
      </trkpt>
      <trkpt lat="50.161153" lon="6.859998">
        <time>2008-07-14T11:59:39Z</time>
      </trkpt>
      <trkpt lat="50.160114" lon="6.859489">
        <time>2008-07-14T11:59:39Z</time>
      </trkpt>
      <trkpt lat="50.160114" lon="6.859489">
        <time>2008-07-14T11:59:39Z</time>
      </trkpt>
      <trkpt lat="50.159537" lon="6.857254">
        <time>2008-07-14T11:59:39Z</time>
      </trkpt>
      <trkpt lat="50.159537" lon="6.857254">
        <time>2008-07-14T11:59:39Z</time>
      </trkpt>
      <trkpt lat="50.158950" lon="6.856390">
        <time>2008-07-14T11:59:39Z</time>
      </trkpt>
      <trkpt lat="50.158623" lon="6.855670">
        <time>2008-07-14T11:59:39Z</time>
      </trkpt>
      <trkpt lat="50.158447" lon="6.855121">
        <time>2008-07-14T11:59:39Z</time>
      </trkpt>
      <trkpt lat="50.158343" lon="6.854686">
        <time>2008-07-14T11:59:39Z</time>
      </trkpt>
      <trkpt lat="50.158241" lon="6.853872">
        <time>2008-07-14T11:59:39Z</time>
      </trkpt>
      <trkpt lat="50.158163" lon="6.853451">
        <time>2008-07-14T11:59:39Z</time>
      </trkpt>
      <trkpt lat="50.157943" lon="6.852775">
        <time>2008-07-14T11:59:39Z</time>
      </trkpt>
      <trkpt lat="50.157926" lon="6.852649">
        <ele>467.000000</ele>
        <time>2008-07-14T11:59:39Z</time>
      </trkpt>
      <trkpt lat="50.157926" lon="6.852649">
        <time>2008-07-14T11:59:39Z</time>
      </trkpt>
      <trkpt lat="50.158049" lon="6.851882">
        <time>2008-07-14T11:59:39Z</time>
      </trkpt>
      <trkpt lat="50.158251" lon="6.851228">
        <time>2008-07-14T11:59:39Z</time>
      </trkpt>
      <trkpt lat="50.158670" lon="6.850437">
        <time>2008-07-14T11:59:39Z</time>
      </trkpt>
      <trkpt lat="50.158974" lon="6.849505">
        <time>2008-07-14T11:59:39Z</time>
      </trkpt>
      <trkpt lat="50.159424" lon="6.848268">
        <time>2008-07-14T11:59:39Z</time>
      </trkpt>
      <trkpt lat="50.159526" lon="6.847836">
        <time>2008-07-14T11:59:39Z</time>
      </trkpt>
      <trkpt lat="50.159526" lon="6.847836">
        <time>2008-07-14T11:59:39Z</time>
      </trkpt>
      <trkpt lat="50.159810" lon="6.847015">
        <time>2008-07-14T11:59:39Z</time>
      </trkpt>
      <trkpt lat="50.160139" lon="6.846251">
        <time>2008-07-14T11:59:39Z</time>
      </trkpt>
      <trkpt lat="50.160139" lon="6.846251">
        <time>2008-07-14T11:59:39Z</time>
      </trkpt>
      <trkpt lat="50.160322" lon="6.845946">
        <time>2008-07-14T11:59:39Z</time>
      </trkpt>
      <trkpt lat="50.160477" lon="6.845599">
        <ele>508.000000</ele>
        <time>2008-07-14T11:59:39Z</time>
      </trkpt>
      <trkpt lat="50.160477" lon="6.845599">
        <time>2008-07-14T11:59:39Z</time>
      </trkpt>
      <trkpt lat="50.160363" lon="6.845248">
        <time>2008-07-14T11:59:39Z</time>
      </trkpt>
      <trkpt lat="50.160239" lon="6.844881">
        <time>2008-07-14T11:59:39Z</time>
      </trkpt>
      <trkpt lat="50.160239" lon="6.844881">
        <time>2008-07-14T11:59:39Z</time>
      </trkpt>
      <trkpt lat="50.160385" lon="6.844688">
        <time>2008-07-14T11:59:39Z</time>
      </trkpt>
      <trkpt lat="50.160468" lon="6.844368">
        <time>2008-07-14T11:59:39Z</time>
      </trkpt>
      <trkpt lat="50.160454" lon="6.843850">
        <time>2008-07-14T11:59:39Z</time>
      </trkpt>
      <trkpt lat="50.160422" lon="6.843303">
        <time>2008-07-14T11:59:39Z</time>
      </trkpt>
      <trkpt lat="50.160352" lon="6.842952">
        <time>2008-07-14T11:59:39Z</time>
      </trkpt>
      <trkpt lat="50.160086" lon="6.842472">
        <time>2008-07-14T11:59:39Z</time>
      </trkpt>
      <trkpt lat="50.159703" lon="6.842003">
        <time>2008-07-14T11:59:39Z</time>
      </trkpt>
      <trkpt lat="50.159203" lon="6.841477">
        <time>2008-07-14T11:59:39Z</time>
      </trkpt>
      <trkpt lat="50.159203" lon="6.841477">
        <time>2008-07-14T11:59:39Z</time>
      </trkpt>
      <trkpt lat="50.158782" lon="6.841301">
        <time>2008-07-14T11:59:39Z</time>
      </trkpt>
      <trkpt lat="50.158558" lon="6.841255">
        <time>2008-07-14T11:59:39Z</time>
      </trkpt>
      <trkpt lat="50.158359" lon="6.841364">
        <time>2008-07-14T11:59:39Z</time>
      </trkpt>
      <trkpt lat="50.158359" lon="6.841364">
        <time>2008-07-14T11:59:39Z</time>
      </trkpt>
      <trkpt lat="50.158093" lon="6.840883">
        <time>2008-07-14T11:59:39Z</time>
      </trkpt>
      <trkpt lat="50.158026" lon="6.840099">
        <time>2008-07-14T11:59:39Z</time>
      </trkpt>
      <trkpt lat="50.157876" lon="6.839816">
        <time>2008-07-14T11:59:39Z</time>
      </trkpt>
      <trkpt lat="50.157718" lon="6.839268">
        <time>2008-07-14T11:59:39Z</time>
      </trkpt>
      <trkpt lat="50.157660" lon="6.838539">
        <time>2008-07-14T11:59:39Z</time>
      </trkpt>
      <trkpt lat="50.157660" lon="6.838539">
        <time>2008-07-14T11:59:39Z</time>
      </trkpt>
      <trkpt lat="50.157364" lon="6.838520">
        <time>2008-07-14T11:59:39Z</time>
      </trkpt>
      <trkpt lat="50.156805" lon="6.838692">
        <time>2008-07-14T11:59:39Z</time>
      </trkpt>
      <trkpt lat="50.156741" lon="6.838817">
        <time>2008-07-14T11:59:39Z</time>
      </trkpt>
      <trkpt lat="50.156741" lon="6.838817">
        <time>2008-07-14T11:59:39Z</time>
      </trkpt>
      <trkpt lat="50.156732" lon="6.838872">
        <time>2008-07-14T11:59:39Z</time>
      </trkpt>
      <trkpt lat="50.156718" lon="6.839530">
        <time>2008-07-14T11:59:39Z</time>
      </trkpt>
      <trkpt lat="50.156837" lon="6.840428">
        <time>2008-07-14T11:59:39Z</time>
      </trkpt>
      <trkpt lat="50.156959" lon="6.841017">
        <time>2008-07-14T11:59:39Z</time>
      </trkpt>
      <trkpt lat="50.157265" lon="6.842226">
        <time>2008-07-14T11:59:39Z</time>
      </trkpt>
      <trkpt lat="50.157265" lon="6.842226">
        <time>2008-07-14T11:59:39Z</time>
      </trkpt>
      <trkpt lat="50.157164" lon="6.842504">
        <time>2008-07-14T11:59:39Z</time>
      </trkpt>
      <trkpt lat="50.157001" lon="6.842599">
        <ele>465.000000</ele>
        <time>2008-07-14T11:59:39Z</time>
      </trkpt>
      <trkpt lat="50.157001" lon="6.842599">
        <time>2008-07-14T11:59:39Z</time>
      </trkpt>
      <trkpt lat="50.156852" lon="6.842163">
        <time>2008-07-14T11:59:39Z</time>
      </trkpt>
      <trkpt lat="50.156665" lon="6.841964">
        <time>2008-07-14T11:59:39Z</time>
      </trkpt>
      <trkpt lat="50.156431" lon="6.841918">
        <time>2008-07-14T11:59:39Z</time>
      </trkpt>
      <trkpt lat="50.156216" lon="6.841858">
        <time>2008-07-14T11:59:39Z</time>
      </trkpt>
      <trkpt lat="50.156191" lon="6.841620">
        <time>2008-07-14T11:59:39Z</time>
      </trkpt>
      <trkpt lat="50.156184" lon="6.841298">
        <time>2008-07-14T11:59:39Z</time>
      </trkpt>
      <trkpt lat="50.156184" lon="6.841298">
        <time>2008-07-14T11:59:39Z</time>
      </trkpt>
      <trkpt lat="50.155820" lon="6.840662">
        <time>2008-07-14T11:59:39Z</time>
      </trkpt>
      <trkpt lat="50.155366" lon="6.839996">
        <time>2008-07-14T11:59:39Z</time>
      </trkpt>
      <trkpt lat="50.155366" lon="6.839996">
        <time>2008-07-14T11:59:39Z</time>
      </trkpt>
      <trkpt lat="50.155246" lon="6.840442">
        <time>2008-07-14T11:59:39Z</time>
      </trkpt>
      <trkpt lat="50.155128" lon="6.840565">
        <time>2008-07-14T11:59:39Z</time>
      </trkpt>
      <trkpt lat="50.155020" lon="6.840564">
        <time>2008-07-14T11:59:39Z</time>
      </trkpt>
      <trkpt lat="50.155020" lon="6.840564">
        <time>2008-07-14T11:59:39Z</time>
      </trkpt>
      <trkpt lat="50.154963" lon="6.839723">
        <time>2008-07-14T11:59:39Z</time>
      </trkpt>
      <trkpt lat="50.154944" lon="6.838673">
        <time>2008-07-14T11:59:39Z</time>
      </trkpt>
      <trkpt lat="50.154904" lon="6.837987">
        <time>2008-07-14T11:59:39Z</time>
      </trkpt>
      <trkpt lat="50.154656" lon="6.837535">
        <time>2008-07-14T11:59:39Z</time>
      </trkpt>
      <trkpt lat="50.154299" lon="6.837137">
        <time>2008-07-14T11:59:39Z</time>
      </trkpt>
      <trkpt lat="50.153976" lon="6.836977">
        <time>2008-07-14T11:59:39Z</time>
      </trkpt>
      <trkpt lat="50.153638" lon="6.836467">
        <time>2008-07-14T11:59:39Z</time>
      </trkpt>
      <trkpt lat="50.153230" lon="6.835761">
        <time>2008-07-14T11:59:39Z</time>
      </trkpt>
      <trkpt lat="50.153061" lon="6.835464">
        <time>2008-07-14T11:59:39Z</time>
      </trkpt>
      <trkpt lat="50.152955" lon="6.835266">
        <time>2008-07-14T11:59:39Z</time>
      </trkpt>
      <trkpt lat="50.152955" lon="6.835266">
        <time>2008-07-14T11:59:39Z</time>
      </trkpt>
      <trkpt lat="50.153010" lon="6.835071">
        <time>2008-07-14T11:59:39Z</time>
      </trkpt>
      <trkpt lat="50.153057" lon="6.834890">
        <time>2008-07-14T11:59:39Z</time>
      </trkpt>
      <trkpt lat="50.152756" lon="6.834143">
        <time>2008-07-14T11:59:39Z</time>
      </trkpt>
      <trkpt lat="50.152669" lon="6.833750">
        <time>2008-07-14T11:59:39Z</time>
      </trkpt>
      <trkpt lat="50.152599" lon="6.832252">
        <time>2008-07-14T11:59:39Z</time>
      </trkpt>
      <trkpt lat="50.152593" lon="6.831776">
        <ele>379.000000</ele>
        <time>2008-07-14T11:59:39Z</time>
      </trkpt>
      <trkpt lat="50.152593" lon="6.831776">
        <time>2008-07-14T11:59:39Z</time>
      </trkpt>
      <trkpt lat="50.152059" lon="6.831067">
        <time>2008-07-14T11:59:39Z</time>
      </trkpt>
      <trkpt lat="50.152059" lon="6.831067">
        <time>2008-07-14T11:59:39Z</time>
      </trkpt>
      <trkpt lat="50.151864" lon="6.830658">
        <time>2008-07-14T11:59:39Z</time>
      </trkpt>
      <trkpt lat="50.151864" lon="6.830658">
        <time>2008-07-14T11:59:39Z</time>
      </trkpt>
      <trkpt lat="50.151894" lon="6.830252">
        <time>2008-07-14T11:59:39Z</time>
      </trkpt>
      <trkpt lat="50.151666" lon="6.829465">
        <time>2008-07-14T11:59:39Z</time>
      </trkpt>
      <trkpt lat="50.151581" lon="6.828778">
        <time>2008-07-14T11:59:39Z</time>
      </trkpt>
      <trkpt lat="50.151602" lon="6.828331">
        <time>2008-07-14T11:59:39Z</time>
      </trkpt>
      <trkpt lat="50.151702" lon="6.828178">
        <time>2008-07-14T11:59:39Z</time>
      </trkpt>
      <trkpt lat="50.151702" lon="6.828178">
        <time>2008-07-14T11:59:39Z</time>
      </trkpt>
      <trkpt lat="50.152021" lon="6.827610">
        <time>2008-07-14T11:59:39Z</time>
      </trkpt>
      <trkpt lat="50.152383" lon="6.827197">
        <time>2008-07-14T11:59:39Z</time>
      </trkpt>
      <trkpt lat="50.152563" lon="6.827200">
        <time>2008-07-14T11:59:39Z</time>
      </trkpt>
      <trkpt lat="50.152858" lon="6.827373">
        <time>2008-07-14T11:59:39Z</time>
      </trkpt>
      <trkpt lat="50.153092" lon="6.827405">
        <time>2008-07-14T11:59:39Z</time>
      </trkpt>
      <trkpt lat="50.153092" lon="6.827405">
        <time>2008-07-14T11:59:39Z</time>
      </trkpt>
      <trkpt lat="50.152858" lon="6.827373">
        <time>2008-07-14T11:59:39Z</time>
      </trkpt>
      <trkpt lat="50.152563" lon="6.827200">
        <time>2008-07-14T11:59:39Z</time>
      </trkpt>
      <trkpt lat="50.152383" lon="6.827197">
        <time>2008-07-14T11:59:39Z</time>
      </trkpt>
      <trkpt lat="50.152021" lon="6.827610">
        <time>2008-07-14T11:59:39Z</time>
      </trkpt>
      <trkpt lat="50.151702" lon="6.828178">
        <time>2008-07-14T11:59:39Z</time>
      </trkpt>
      <trkpt lat="50.151702" lon="6.828178">
        <time>2008-07-14T11:59:39Z</time>
      </trkpt>
      <trkpt lat="50.151602" lon="6.828331">
        <time>2008-07-14T11:59:39Z</time>
      </trkpt>
      <trkpt lat="50.151581" lon="6.828778">
        <time>2008-07-14T11:59:39Z</time>
      </trkpt>
      <trkpt lat="50.151666" lon="6.829465">
        <time>2008-07-14T11:59:39Z</time>
      </trkpt>
      <trkpt lat="50.151894" lon="6.830252">
        <time>2008-07-14T11:59:39Z</time>
      </trkpt>
      <trkpt lat="50.151864" lon="6.830658">
        <time>2008-07-14T11:59:39Z</time>
      </trkpt>
      <trkpt lat="50.151864" lon="6.830658">
        <time>2008-07-14T11:59:39Z</time>
      </trkpt>
      <trkpt lat="50.151894" lon="6.830252">
        <time>2008-07-14T11:59:39Z</time>
      </trkpt>
      <trkpt lat="50.151666" lon="6.829465">
        <time>2008-07-14T11:59:39Z</time>
      </trkpt>
      <trkpt lat="50.151581" lon="6.828778">
        <time>2008-07-14T11:59:39Z</time>
      </trkpt>
      <trkpt lat="50.151602" lon="6.828331">
        <time>2008-07-14T11:59:39Z</time>
      </trkpt>
      <trkpt lat="50.151702" lon="6.828178">
        <time>2008-07-14T11:59:39Z</time>
      </trkpt>
      <trkpt lat="50.151702" lon="6.828178">
        <time>2008-07-14T11:59:39Z</time>
      </trkpt>
      <trkpt lat="50.152021" lon="6.827610">
        <time>2008-07-14T11:59:39Z</time>
      </trkpt>
      <trkpt lat="50.152383" lon="6.827197">
        <time>2008-07-14T11:59:39Z</time>
      </trkpt>
      <trkpt lat="50.152563" lon="6.827200">
        <time>2008-07-14T11:59:39Z</time>
      </trkpt>
      <trkpt lat="50.152858" lon="6.827373">
        <time>2008-07-14T11:59:39Z</time>
      </trkpt>
      <trkpt lat="50.153092" lon="6.827405">
        <time>2008-07-14T11:59:39Z</time>
      </trkpt>
      <trkpt lat="50.153092" lon="6.827405">
        <time>2008-07-14T11:59:39Z</time>
      </trkpt>
      <trkpt lat="50.153192" lon="6.827267">
        <time>2008-07-14T11:59:39Z</time>
      </trkpt>
      <trkpt lat="50.153062" lon="6.826635">
        <time>2008-07-14T11:59:39Z</time>
      </trkpt>
      <trkpt lat="50.152761" lon="6.825846">
        <time>2008-07-14T11:59:39Z</time>
      </trkpt>
      <trkpt lat="50.152650" lon="6.825130">
        <time>2008-07-14T11:59:39Z</time>
      </trkpt>
      <trkpt lat="50.152660" lon="6.824935">
        <time>2008-07-14T11:59:39Z</time>
      </trkpt>
      <trkpt lat="50.152744" lon="6.824502">
        <time>2008-07-14T11:59:39Z</time>
      </trkpt>
      <trkpt lat="50.152744" lon="6.824502">
        <time>2008-07-14T11:59:39Z</time>
      </trkpt>
      <trkpt lat="50.153130" lon="6.823404">
        <time>2008-07-14T11:59:39Z</time>
      </trkpt>
      <trkpt lat="50.153413" lon="6.822695">
        <time>2008-07-14T11:59:39Z</time>
      </trkpt>
      <trkpt lat="50.153611" lon="6.822656">
        <time>2008-07-14T11:59:39Z</time>
      </trkpt>
      <trkpt lat="50.153970" lon="6.822732">
        <time>2008-07-14T11:59:39Z</time>
      </trkpt>
      <trkpt lat="50.154097" lon="6.822679">
        <time>2008-07-14T11:59:39Z</time>
      </trkpt>
      <trkpt lat="50.154180" lon="6.822344">
        <time>2008-07-14T11:59:39Z</time>
      </trkpt>
      <trkpt lat="50.154180" lon="6.822344">
        <time>2008-07-14T11:59:39Z</time>
      </trkpt>
      <trkpt lat="50.154172" lon="6.822134">
        <time>2008-07-14T11:59:39Z</time>
      </trkpt>
      <trkpt lat="50.154064" lon="6.822160">
        <time>2008-07-14T11:59:39Z</time>
      </trkpt>
      <trkpt lat="50.154048" lon="6.821880">
        <time>2008-07-14T11:59:39Z</time>
      </trkpt>
      <trkpt lat="50.153858" lon="6.822045">
        <time>2008-07-14T11:59:39Z</time>
      </trkpt>
      <trkpt lat="50.153798" lon="6.821736">
        <time>2008-07-14T11:59:39Z</time>
      </trkpt>
      <trkpt lat="50.153599" lon="6.821886">
        <time>2008-07-14T11:59:39Z</time>
      </trkpt>
      <trkpt lat="50.153574" lon="6.821578">
        <time>2008-07-14T11:59:39Z</time>
      </trkpt>
      <trkpt lat="50.153402" lon="6.821785">
        <time>2008-07-14T11:59:39Z</time>
      </trkpt>
      <trkpt lat="50.153305" lon="6.821532">
        <ele>350.000000</ele>
        <time>2008-07-14T11:59:39Z</time>
      </trkpt>
      <trkpt lat="50.153305" lon="6.821532">
        <time>2008-07-14T11:59:39Z</time>
      </trkpt>
      <trkpt lat="50.153586" lon="6.821215">
        <time>2008-07-14T11:59:39Z</time>
      </trkpt>
      <trkpt lat="50.154046" lon="6.820929">
        <time>2008-07-14T11:59:39Z</time>
      </trkpt>
      <trkpt lat="50.154360" lon="6.820990">
        <time>2008-07-14T11:59:39Z</time>
      </trkpt>
      <trkpt lat="50.154602" lon="6.821106">
        <time>2008-07-14T11:59:39Z</time>
      </trkpt>
      <trkpt lat="50.154602" lon="6.821106">
        <time>2008-07-14T11:59:39Z</time>
      </trkpt>
      <trkpt lat="50.154677" lon="6.820716">
        <time>2008-07-14T11:59:39Z</time>
      </trkpt>
      <trkpt lat="50.154480" lon="6.820572">
        <time>2008-07-14T11:59:39Z</time>
      </trkpt>
      <trkpt lat="50.154355" lon="6.820514">
        <time>2008-07-14T11:59:39Z</time>
      </trkpt>
      <trkpt lat="50.154376" lon="6.820095">
        <time>2008-07-14T11:59:39Z</time>
      </trkpt>
      <trkpt lat="50.154396" lon="6.819773">
        <time>2008-07-14T11:59:39Z</time>
      </trkpt>
      <trkpt lat="50.154396" lon="6.819773">
        <time>2008-07-14T11:59:39Z</time>
      </trkpt>
      <trkpt lat="50.153280" lon="6.818691">
        <time>2008-07-14T11:59:39Z</time>
      </trkpt>
      <trkpt lat="50.153218" lon="6.818452">
        <ele>346.000000</ele>
        <time>2008-07-14T11:59:39Z</time>
      </trkpt>
      <trkpt lat="50.153218" lon="6.818452">
        <time>2008-07-14T11:59:39Z</time>
      </trkpt>
      <trkpt lat="50.153049" lon="6.818211">
        <time>2008-07-14T11:59:39Z</time>
      </trkpt>
      <trkpt lat="50.151589" lon="6.817500">
        <time>2008-07-14T11:59:39Z</time>
      </trkpt>
      <trkpt lat="50.150936" lon="6.816986">
        <time>2008-07-14T11:59:39Z</time>
      </trkpt>
      <trkpt lat="50.150434" lon="6.816781">
        <time>2008-07-14T11:59:39Z</time>
      </trkpt>
      <trkpt lat="50.149572" lon="6.816655">
        <time>2008-07-14T11:59:39Z</time>
      </trkpt>
      <trkpt lat="50.148837" lon="6.816292">
        <time>2008-07-14T11:59:39Z</time>
      </trkpt>
      <trkpt lat="50.148837" lon="6.816292">
        <time>2008-07-14T11:59:39Z</time>
      </trkpt>
      <trkpt lat="50.148498" lon="6.815965">
        <time>2008-07-14T11:59:39Z</time>
      </trkpt>
      <trkpt lat="50.148074" lon="6.814922">
        <time>2008-07-14T11:59:39Z</time>
      </trkpt>
      <trkpt lat="50.147704" lon="6.813881">
        <time>2008-07-14T11:59:39Z</time>
      </trkpt>
      <trkpt lat="50.147369" lon="6.812798">
        <time>2008-07-14T11:59:39Z</time>
      </trkpt>
      <trkpt lat="50.147369" lon="6.812798">
        <time>2008-07-14T11:59:39Z</time>
      </trkpt>
      <trkpt lat="50.147307" lon="6.812713">
        <time>2008-07-14T11:59:39Z</time>
      </trkpt>
      <trkpt lat="50.146998" lon="6.811868">
        <time>2008-07-14T11:59:39Z</time>
      </trkpt>
      <trkpt lat="50.146931" lon="6.811265">
        <time>2008-07-14T11:59:39Z</time>
      </trkpt>
      <trkpt lat="50.146549" lon="6.810601">
        <time>2008-07-14T11:59:39Z</time>
      </trkpt>
      <trkpt lat="50.146263" lon="6.810331">
        <time>2008-07-14T11:59:39Z</time>
      </trkpt>
      <trkpt lat="50.146263" lon="6.810331">
        <time>2008-07-14T11:59:39Z</time>
      </trkpt>
      <trkpt lat="50.145726" lon="6.809986">
        <time>2008-07-14T11:59:39Z</time>
      </trkpt>
      <trkpt lat="50.145056" lon="6.809345">
        <time>2008-07-14T11:59:39Z</time>
      </trkpt>
      <trkpt lat="50.144751" lon="6.809214">
        <time>2008-07-14T11:59:39Z</time>
      </trkpt>
      <trkpt lat="50.143034" lon="6.809311">
        <time>2008-07-14T11:59:39Z</time>
      </trkpt>
      <trkpt lat="50.143034" lon="6.809311">
        <time>2008-07-14T11:59:39Z</time>
      </trkpt>
      <trkpt lat="50.142744" lon="6.809516">
        <time>2008-07-14T11:59:39Z</time>
      </trkpt>
      <trkpt lat="50.141901" lon="6.809292">
        <time>2008-07-14T11:59:39Z</time>
      </trkpt>
      <trkpt lat="50.141326" lon="6.809198">
        <time>2008-07-14T11:59:39Z</time>
      </trkpt>
      <trkpt lat="50.140589" lon="6.809269">
        <time>2008-07-14T11:59:39Z</time>
      </trkpt>
      <trkpt lat="50.139806" lon="6.809284">
        <time>2008-07-14T11:59:39Z</time>
      </trkpt>
      <trkpt lat="50.138672" lon="6.809531">
        <ele>339.000000</ele>
        <time>2008-07-14T11:59:39Z</time>
      </trkpt>
      <trkpt lat="50.138672" lon="6.809531">
        <time>2008-07-14T11:59:39Z</time>
      </trkpt>
      <trkpt lat="50.138703" lon="6.810231">
        <time>2008-07-14T11:59:39Z</time>
      </trkpt>
      <trkpt lat="50.138664" lon="6.810664">
        <time>2008-07-14T11:59:39Z</time>
      </trkpt>
      <trkpt lat="50.138664" lon="6.810664">
        <time>2008-07-14T11:59:39Z</time>
      </trkpt>
      <trkpt lat="50.138212" lon="6.810936">
        <time>2008-07-14T11:59:39Z</time>
      </trkpt>
      <trkpt lat="50.138077" lon="6.811004">
        <time>2008-07-14T11:59:39Z</time>
      </trkpt>
      <trkpt lat="50.138077" lon="6.811004">
        <time>2008-07-14T11:59:39Z</time>
      </trkpt>
      <trkpt lat="50.137798" lon="6.811027">
        <time>2008-07-14T11:59:39Z</time>
      </trkpt>
      <trkpt lat="50.137786" lon="6.811558">
        <time>2008-07-14T11:59:39Z</time>
      </trkpt>
      <trkpt lat="50.137810" lon="6.811908">
        <ele>348.000000</ele>
        <time>2008-07-14T11:59:39Z</time>
      </trkpt>
      <trkpt lat="50.137810" lon="6.811908">
        <time>2008-07-14T11:59:39Z</time>
      </trkpt>
      <trkpt lat="50.137818" lon="6.811978">
        <time>2008-07-14T11:59:39Z</time>
      </trkpt>
      <trkpt lat="50.137560" lon="6.811666">
        <time>2008-07-14T11:59:39Z</time>
      </trkpt>
      <trkpt lat="50.137570" lon="6.811583">
        <time>2008-07-14T11:59:39Z</time>
      </trkpt>
      <trkpt lat="50.137570" lon="6.811583">
        <time>2008-07-14T11:59:39Z</time>
      </trkpt>
      <trkpt lat="50.137546" lon="6.811135">
        <time>2008-07-14T11:59:39Z</time>
      </trkpt>
      <trkpt lat="50.136927" lon="6.810844">
        <time>2008-07-14T11:59:39Z</time>
      </trkpt>
      <trkpt lat="50.136604" lon="6.810755">
        <time>2008-07-14T11:59:39Z</time>
      </trkpt>
      <trkpt lat="50.136604" lon="6.810755">
        <time>2008-07-14T11:59:39Z</time>
      </trkpt>
      <trkpt lat="50.136182" lon="6.810664">
        <time>2008-07-14T11:59:39Z</time>
      </trkpt>
      <trkpt lat="50.135566" lon="6.811339">
        <time>2008-07-14T11:59:39Z</time>
      </trkpt>
      <trkpt lat="50.135528" lon="6.811688">
        <time>2008-07-14T11:59:39Z</time>
      </trkpt>
      <trkpt lat="50.135528" lon="6.811688">
        <time>2008-07-14T11:59:39Z</time>
      </trkpt>
      <trkpt lat="50.135541" lon="6.812429">
        <time>2008-07-14T11:59:39Z</time>
      </trkpt>
      <trkpt lat="50.135115" lon="6.812940">
        <time>2008-07-14T11:59:39Z</time>
      </trkpt>
      <trkpt lat="50.134581" lon="6.813420">
        <time>2008-07-14T11:59:39Z</time>
      </trkpt>
      <trkpt lat="50.134581" lon="6.813420">
        <time>2008-07-14T11:59:39Z</time>
      </trkpt>
      <trkpt lat="50.134694" lon="6.812639">
        <time>2008-07-14T11:59:39Z</time>
      </trkpt>
      <trkpt lat="50.134694" lon="6.812639">
        <time>2008-07-14T11:59:39Z</time>
      </trkpt>
      <trkpt lat="50.134260" lon="6.812995">
        <time>2008-07-14T11:59:39Z</time>
      </trkpt>
      <trkpt lat="50.133800" lon="6.813225">
        <time>2008-07-14T11:59:39Z</time>
      </trkpt>
      <trkpt lat="50.132998" lon="6.813491">
        <time>2008-07-14T11:59:39Z</time>
      </trkpt>
      <trkpt lat="50.132324" lon="6.813410">
        <time>2008-07-14T11:59:39Z</time>
      </trkpt>
      <trkpt lat="50.131730" lon="6.813554">
        <time>2008-07-14T11:59:39Z</time>
      </trkpt>
      <trkpt lat="50.131730" lon="6.813554">
        <time>2008-07-14T11:59:39Z</time>
      </trkpt>
      <trkpt lat="50.131487" lon="6.813578">
        <time>2008-07-14T11:59:39Z</time>
      </trkpt>
      <trkpt lat="50.131487" lon="6.813578">
        <time>2008-07-14T11:59:39Z</time>
      </trkpt>
      <trkpt lat="50.131399" lon="6.813352">
        <time>2008-07-14T11:59:39Z</time>
      </trkpt>
      <trkpt lat="50.131111" lon="6.813375">
        <time>2008-07-14T11:59:39Z</time>
      </trkpt>
      <trkpt lat="50.130678" lon="6.813592">
        <time>2008-07-14T11:59:39Z</time>
      </trkpt>
      <trkpt lat="50.130246" lon="6.813682">
        <time>2008-07-14T11:59:39Z</time>
      </trkpt>
      <trkpt lat="50.129841" lon="6.813647">
        <time>2008-07-14T11:59:39Z</time>
      </trkpt>
      <trkpt lat="50.129348" lon="6.813541">
        <time>2008-07-14T11:59:39Z</time>
      </trkpt>
      <trkpt lat="50.129122" lon="6.813663">
        <time>2008-07-14T11:59:39Z</time>
      </trkpt>
      <trkpt lat="50.128942" lon="6.813772">
        <time>2008-07-14T11:59:39Z</time>
      </trkpt>
      <trkpt lat="50.128942" lon="6.813772">
        <time>2008-07-14T11:59:39Z</time>
      </trkpt>
      <trkpt lat="50.128770" lon="6.813797">
        <time>2008-07-14T11:59:39Z</time>
      </trkpt>
      <trkpt lat="50.128635" lon="6.813851">
        <time>2008-07-14T11:59:39Z</time>
      </trkpt>
      <trkpt lat="50.128635" lon="6.813851">
        <time>2008-07-14T11:59:39Z</time>
      </trkpt>
      <trkpt lat="50.128403" lon="6.813651">
        <time>2008-07-14T11:59:39Z</time>
      </trkpt>
      <trkpt lat="50.128062" lon="6.813506">
        <time>2008-07-14T11:59:39Z</time>
      </trkpt>
      <trkpt lat="50.127766" lon="6.813403">
        <time>2008-07-14T11:59:39Z</time>
      </trkpt>
      <trkpt lat="50.127426" lon="6.813173">
        <time>2008-07-14T11:59:39Z</time>
      </trkpt>
      <trkpt lat="50.127150" lon="6.812819">
        <ele>350.000000</ele>
        <time>2008-07-14T11:59:39Z</time>
      </trkpt>
      <trkpt lat="50.127150" lon="6.812819">
        <time>2008-07-14T11:59:39Z</time>
      </trkpt>
      <trkpt lat="50.126890" lon="6.812716">
        <time>2008-07-14T11:59:39Z</time>
      </trkpt>
      <trkpt lat="50.126529" lon="6.812920">
        <time>2008-07-14T11:59:39Z</time>
      </trkpt>
      <trkpt lat="50.126282" lon="6.813503">
        <time>2008-07-14T11:59:39Z</time>
      </trkpt>
      <trkpt lat="50.125981" lon="6.814141">
        <time>2008-07-14T11:59:39Z</time>
      </trkpt>
      <trkpt lat="50.125636" lon="6.814569">
        <time>2008-07-14T11:59:39Z</time>
      </trkpt>
      <trkpt lat="50.125185" lon="6.814911">
        <time>2008-07-14T11:59:39Z</time>
      </trkpt>
      <trkpt lat="50.124888" lon="6.814850">
        <time>2008-07-14T11:59:39Z</time>
      </trkpt>
      <trkpt lat="50.124888" lon="6.814850">
        <time>2008-07-14T11:59:39Z</time>
      </trkpt>
      <trkpt lat="50.124816" lon="6.814877">
        <time>2008-07-14T11:59:39Z</time>
      </trkpt>
      <trkpt lat="50.124438" lon="6.814912">
        <time>2008-07-14T11:59:39Z</time>
      </trkpt>
      <trkpt lat="50.124196" lon="6.814880">
        <time>2008-07-14T11:59:39Z</time>
      </trkpt>
      <trkpt lat="50.124059" lon="6.815172">
        <ele>335.000000</ele>
        <time>2008-07-14T11:59:39Z</time>
      </trkpt>
      <trkpt lat="50.124059" lon="6.815172">
        <time>2008-07-14T11:59:39Z</time>
      </trkpt>
      <trkpt lat="50.123885" lon="6.815574">
        <time>2008-07-14T11:59:39Z</time>
      </trkpt>
      <trkpt lat="50.123885" lon="6.815574">
        <time>2008-07-14T11:59:39Z</time>
      </trkpt>
      <trkpt lat="50.123727" lon="6.815124">
        <time>2008-07-14T11:59:39Z</time>
      </trkpt>
      <trkpt lat="50.123341" lon="6.814978">
        <time>2008-07-14T11:59:39Z</time>
      </trkpt>
      <trkpt lat="50.123341" lon="6.815020">
        <time>2008-07-14T11:59:39Z</time>
      </trkpt>
      <trkpt lat="50.123341" lon="6.814978">
        <time>2008-07-14T11:59:39Z</time>
      </trkpt>
      <trkpt lat="50.122190" lon="6.815000">
        <time>2008-07-14T11:59:39Z</time>
      </trkpt>
      <trkpt lat="50.121278" lon="6.815516">
        <time>2008-07-14T11:59:39Z</time>
      </trkpt>
      <trkpt lat="50.120977" lon="6.816168">
        <time>2008-07-14T11:59:39Z</time>
      </trkpt>
      <trkpt lat="50.120977" lon="6.816168">
        <time>2008-07-14T11:59:39Z</time>
      </trkpt>
      <trkpt lat="50.120203" lon="6.816239">
        <time>2008-07-14T11:59:39Z</time>
      </trkpt>
      <trkpt lat="50.120203" lon="6.816239">
        <time>2008-07-14T11:59:39Z</time>
      </trkpt>
      <trkpt lat="50.119786" lon="6.816763">
        <time>2008-07-14T11:59:39Z</time>
      </trkpt>
      <trkpt lat="50.119062" lon="6.817422">
        <time>2008-07-14T11:59:39Z</time>
      </trkpt>
      <trkpt lat="50.118536" lon="6.818098">
        <time>2008-07-14T11:59:39Z</time>
      </trkpt>
      <trkpt lat="50.117703" lon="6.817664">
        <time>2008-07-14T11:59:39Z</time>
      </trkpt>
      <trkpt lat="50.117166" lon="6.817404">
        <time>2008-07-14T11:59:39Z</time>
      </trkpt>
      <trkpt lat="50.117166" lon="6.817404">
        <time>2008-07-14T11:59:39Z</time>
      </trkpt>
      <trkpt lat="50.116387" lon="6.816971">
        <time>2008-07-14T11:59:39Z</time>
      </trkpt>
      <trkpt lat="50.115230" lon="6.816504">
        <time>2008-07-14T11:59:39Z</time>
      </trkpt>
      <trkpt lat="50.115195" lon="6.816349">
        <time>2008-07-14T11:59:39Z</time>
      </trkpt>
      <trkpt lat="50.115195" lon="6.816349">
        <time>2008-07-14T11:59:39Z</time>
      </trkpt>
      <trkpt lat="50.114626" lon="6.815417">
        <time>2008-07-14T11:59:39Z</time>
      </trkpt>
      <trkpt lat="50.114596" lon="6.813347">
        <time>2008-07-14T11:59:39Z</time>
      </trkpt>
      <trkpt lat="50.114202" lon="6.811775">
        <time>2008-07-14T11:59:39Z</time>
      </trkpt>
      <trkpt lat="50.113896" lon="6.811909">
        <time>2008-07-14T11:59:39Z</time>
      </trkpt>
      <trkpt lat="50.113926" lon="6.813979">
        <time>2008-07-14T11:59:39Z</time>
      </trkpt>
      <trkpt lat="50.113926" lon="6.813979">
        <time>2008-07-14T11:59:39Z</time>
      </trkpt>
      <trkpt lat="50.113952" lon="6.815419">
        <ele>317.000000</ele>
        <time>2008-07-14T11:59:39Z</time>
      </trkpt>
      <trkpt lat="50.113952" lon="6.815419">
        <time>2008-07-14T11:59:39Z</time>
      </trkpt>
      <trkpt lat="50.113701" lon="6.815289">
        <time>2008-07-14T11:59:39Z</time>
      </trkpt>
      <trkpt lat="50.113409" lon="6.814683">
        <time>2008-07-14T11:59:39Z</time>
      </trkpt>
      <trkpt lat="50.113323" lon="6.814053">
        <time>2008-07-14T11:59:39Z</time>
      </trkpt>
      <trkpt lat="50.113166" lon="6.813407">
        <time>2008-07-14T11:59:39Z</time>
      </trkpt>
      <trkpt lat="50.113166" lon="6.813407">
        <time>2008-07-14T11:59:39Z</time>
      </trkpt>
      <trkpt lat="50.113140" lon="6.813309">
        <time>2008-07-14T11:59:39Z</time>
      </trkpt>
      <trkpt lat="50.113135" lon="6.812679">
        <time>2008-07-14T11:59:39Z</time>
      </trkpt>
      <trkpt lat="50.113135" lon="6.812679">
        <time>2008-07-14T11:59:39Z</time>
      </trkpt>
      <trkpt lat="50.112880" lon="6.811934">
        <time>2008-07-14T11:59:39Z</time>
      </trkpt>
      <trkpt lat="50.112800" lon="6.811807">
        <time>2008-07-14T11:59:39Z</time>
      </trkpt>
      <trkpt lat="50.112800" lon="6.811807">
        <time>2008-07-14T11:59:39Z</time>
      </trkpt>
      <trkpt lat="50.112391" lon="6.811087">
        <time>2008-07-14T11:59:39Z</time>
      </trkpt>
      <trkpt lat="50.112391" lon="6.811087">
        <time>2008-07-14T11:59:39Z</time>
      </trkpt>
      <trkpt lat="50.112221" lon="6.811014">
        <time>2008-07-14T11:59:39Z</time>
      </trkpt>
      <trkpt lat="50.111223" lon="6.810955">
        <time>2008-07-14T11:59:39Z</time>
      </trkpt>
      <trkpt lat="50.111223" lon="6.810955">
        <time>2008-07-14T11:59:39Z</time>
      </trkpt>
      <trkpt lat="50.111169" lon="6.810954">
        <time>2008-07-14T11:59:39Z</time>
      </trkpt>
      <trkpt lat="50.110522" lon="6.809657">
        <time>2008-07-14T11:59:39Z</time>
      </trkpt>
      <trkpt lat="50.110362" lon="6.809361">
        <time>2008-07-14T11:59:39Z</time>
      </trkpt>
      <trkpt lat="50.110318" lon="6.809221">
        <time>2008-07-14T11:59:39Z</time>
      </trkpt>
      <trkpt lat="50.110310" lon="6.809123">
        <time>2008-07-14T11:59:39Z</time>
      </trkpt>
      <trkpt lat="50.109098" lon="6.808892">
        <time>2008-07-14T11:59:39Z</time>
      </trkpt>
      <trkpt lat="50.108843" lon="6.808063">
        <time>2008-07-14T11:59:39Z</time>
      </trkpt>
      <trkpt lat="50.108843" lon="6.808063">
        <time>2008-07-14T11:59:39Z</time>
      </trkpt>
      <trkpt lat="50.108429" lon="6.808196">
        <time>2008-07-14T11:59:39Z</time>
      </trkpt>
      <trkpt lat="50.108443" lon="6.808728">
        <time>2008-07-14T11:59:39Z</time>
      </trkpt>
      <trkpt lat="50.107940" lon="6.809921">
        <time>2008-07-14T11:59:39Z</time>
      </trkpt>
      <trkpt lat="50.107646" lon="6.810811">
        <time>2008-07-14T11:59:39Z</time>
      </trkpt>
      <trkpt lat="50.107174" lon="6.811446">
        <ele>338.000000</ele>
        <time>2008-07-14T11:59:39Z</time>
      </trkpt>
      <trkpt lat="50.107174" lon="6.811446">
        <time>2008-07-14T11:59:39Z</time>
      </trkpt>
      <trkpt lat="50.107545" lon="6.809887">
        <time>2008-07-14T11:59:39Z</time>
      </trkpt>
      <trkpt lat="50.107545" lon="6.809887">
        <time>2008-07-14T11:59:39Z</time>
      </trkpt>
      <trkpt lat="50.107429" lon="6.809661">
        <time>2008-07-14T11:59:39Z</time>
      </trkpt>
      <trkpt lat="50.107157" lon="6.808734">
        <time>2008-07-14T11:59:39Z</time>
      </trkpt>
      <trkpt lat="50.106803" lon="6.807973">
        <time>2008-07-14T11:59:39Z</time>
      </trkpt>
      <trkpt lat="50.106803" lon="6.807973">
        <time>2008-07-14T11:59:39Z</time>
      </trkpt>
      <trkpt lat="50.106614" lon="6.807970">
        <time>2008-07-14T11:59:39Z</time>
      </trkpt>
      <trkpt lat="50.106488" lon="6.808024">
        <time>2008-07-14T11:59:39Z</time>
      </trkpt>
      <trkpt lat="50.106488" lon="6.808024">
        <time>2008-07-14T11:59:39Z</time>
      </trkpt>
      <trkpt lat="50.106127" lon="6.808171">
        <time>2008-07-14T11:59:39Z</time>
      </trkpt>
      <trkpt lat="50.105669" lon="6.808178">
        <time>2008-07-14T11:59:39Z</time>
      </trkpt>
      <trkpt lat="50.105669" lon="6.808178">
        <time>2008-07-14T11:59:39Z</time>
      </trkpt>
      <trkpt lat="50.105516" lon="6.808189">
        <time>2008-07-14T11:59:39Z</time>
      </trkpt>
      <trkpt lat="50.105084" lon="6.808182">
        <time>2008-07-14T11:59:39Z</time>
      </trkpt>
      <trkpt lat="50.104726" lon="6.807952">
        <time>2008-07-14T11:59:39Z</time>
      </trkpt>
      <trkpt lat="50.104145" lon="6.806265">
        <time>2008-07-14T11:59:39Z</time>
      </trkpt>
      <trkpt lat="50.103884" lon="6.806247">
        <time>2008-07-14T11:59:39Z</time>
      </trkpt>
      <trkpt lat="50.103866" lon="6.806204">
        <time>2008-07-14T11:59:39Z</time>
      </trkpt>
      <trkpt lat="50.103893" lon="6.806219">
        <time>2008-07-14T11:59:39Z</time>
      </trkpt>
      <trkpt lat="50.103893" lon="6.806219">
        <time>2008-07-14T11:59:39Z</time>
      </trkpt>
      <trkpt lat="50.103966" lon="6.807296">
        <time>2008-07-14T11:59:39Z</time>
      </trkpt>
      <trkpt lat="50.103721" lon="6.807726">
        <time>2008-07-14T11:59:39Z</time>
      </trkpt>
      <trkpt lat="50.103583" lon="6.808101">
        <time>2008-07-14T11:59:39Z</time>
      </trkpt>
      <trkpt lat="50.103312" lon="6.808348">
        <time>2008-07-14T11:59:39Z</time>
      </trkpt>
      <trkpt lat="50.103024" lon="6.808441">
        <time>2008-07-14T11:59:39Z</time>
      </trkpt>
      <trkpt lat="50.103024" lon="6.808441">
        <time>2008-07-14T11:59:39Z</time>
      </trkpt>
      <trkpt lat="50.102148" lon="6.808915">
        <time>2008-07-14T11:59:39Z</time>
      </trkpt>
      <trkpt lat="50.101613" lon="6.809549">
        <time>2008-07-14T11:59:39Z</time>
      </trkpt>
      <trkpt lat="50.101350" lon="6.809922">
        <time>2008-07-14T11:59:39Z</time>
      </trkpt>
      <trkpt lat="50.101350" lon="6.809922">
        <time>2008-07-14T11:59:39Z</time>
      </trkpt>
      <trkpt lat="50.101234" lon="6.809808">
        <time>2008-07-14T11:59:39Z</time>
      </trkpt>
      <trkpt lat="50.101234" lon="6.809808">
        <time>2008-07-14T11:59:39Z</time>
      </trkpt>
      <trkpt lat="50.100805" lon="6.809410">
        <time>2008-07-14T11:59:39Z</time>
      </trkpt>
      <trkpt lat="50.100805" lon="6.809410">
        <time>2008-07-14T11:59:39Z</time>
      </trkpt>
      <trkpt lat="50.100660" lon="6.809659">
        <ele>359.000000</ele>
        <time>2008-07-14T11:59:39Z</time>
      </trkpt>
      <trkpt lat="50.100660" lon="6.809659">
        <time>2008-07-14T11:59:39Z</time>
      </trkpt>
      <trkpt lat="50.100503" lon="6.810257">
        <time>2008-07-14T11:59:39Z</time>
      </trkpt>
      <trkpt lat="50.100286" lon="6.811595">
        <time>2008-07-14T11:59:39Z</time>
      </trkpt>
      <trkpt lat="50.100286" lon="6.811595">
        <time>2008-07-14T11:59:39Z</time>
      </trkpt>
      <trkpt lat="50.099994" lon="6.811045">
        <time>2008-07-14T11:59:39Z</time>
      </trkpt>
      <trkpt lat="50.099680" lon="6.810914">
        <time>2008-07-14T11:59:39Z</time>
      </trkpt>
      <trkpt lat="50.099399" lon="6.811161">
        <time>2008-07-14T11:59:39Z</time>
      </trkpt>
      <trkpt lat="50.099137" lon="6.811366">
        <time>2008-07-14T11:59:39Z</time>
      </trkpt>
      <trkpt lat="50.099038" lon="6.811365">
        <time>2008-07-14T11:59:39Z</time>
      </trkpt>
      <trkpt lat="50.098398" lon="6.811633">
        <time>2008-07-14T11:59:39Z</time>
      </trkpt>
      <trkpt lat="50.098271" lon="6.811785">
        <time>2008-07-14T11:59:39Z</time>
      </trkpt>
      <trkpt lat="50.098226" lon="6.811826">
        <ele>345.000000</ele>
        <time>2008-07-14T11:59:39Z</time>
      </trkpt>
      <trkpt lat="50.098226" lon="6.811826">
        <time>2008-07-14T11:59:39Z</time>
      </trkpt>
      <trkpt lat="50.097856" lon="6.811974">
        <time>2008-07-14T11:59:39Z</time>
      </trkpt>
      <trkpt lat="50.097448" lon="6.812484">
        <time>2008-07-14T11:59:39Z</time>
      </trkpt>
      <trkpt lat="50.097302" lon="6.812887">
        <time>2008-07-14T11:59:39Z</time>
      </trkpt>
      <trkpt lat="50.097219" lon="6.813137">
        <time>2008-07-14T11:59:39Z</time>
      </trkpt>
      <trkpt lat="50.097117" lon="6.813582">
        <time>2008-07-14T11:59:39Z</time>
      </trkpt>
      <trkpt lat="50.096972" lon="6.813720">
        <time>2008-07-14T11:59:39Z</time>
      </trkpt>
      <trkpt lat="50.096972" lon="6.813720">
        <time>2008-07-14T11:59:39Z</time>
      </trkpt>
      <trkpt lat="50.096818" lon="6.813829">
        <time>2008-07-14T11:59:39Z</time>
      </trkpt>
      <trkpt lat="50.096390" lon="6.813374">
        <time>2008-07-14T11:59:39Z</time>
      </trkpt>
      <trkpt lat="50.095797" lon="6.813350">
        <time>2008-07-14T11:59:39Z</time>
      </trkpt>
      <trkpt lat="50.095797" lon="6.813350">
        <time>2008-07-14T11:59:39Z</time>
      </trkpt>
      <trkpt lat="50.095761" lon="6.813392">
        <time>2008-07-14T11:59:39Z</time>
      </trkpt>
      <trkpt lat="50.095474" lon="6.813317">
        <time>2008-07-14T11:59:39Z</time>
      </trkpt>
      <trkpt lat="50.095447" lon="6.813275">
        <time>2008-07-14T11:59:39Z</time>
      </trkpt>
      <trkpt lat="50.095106" lon="6.813087">
        <time>2008-07-14T11:59:39Z</time>
      </trkpt>
      <trkpt lat="50.095192" lon="6.812376">
        <time>2008-07-14T11:59:39Z</time>
      </trkpt>
      <trkpt lat="50.095192" lon="6.812376">
        <time>2008-07-14T11:59:39Z</time>
      </trkpt>
      <trkpt lat="50.095076" lon="6.812234">
        <time>2008-07-14T11:59:39Z</time>
      </trkpt>
      <trkpt lat="50.094662" lon="6.812367">
        <time>2008-07-14T11:59:39Z</time>
      </trkpt>
      <trkpt lat="50.094369" lon="6.811817">
        <time>2008-07-14T11:59:39Z</time>
      </trkpt>
      <trkpt lat="50.094369" lon="6.811817">
        <time>2008-07-14T11:59:39Z</time>
      </trkpt>
      <trkpt lat="50.094148" lon="6.811310">
        <time>2008-07-14T11:59:39Z</time>
      </trkpt>
      <trkpt lat="50.094148" lon="6.811310">
        <time>2008-07-14T11:59:39Z</time>
      </trkpt>
      <trkpt lat="50.094094" lon="6.811309">
        <time>2008-07-14T11:59:39Z</time>
      </trkpt>
      <trkpt lat="50.093870" lon="6.811166">
        <time>2008-07-14T11:59:39Z</time>
      </trkpt>
      <trkpt lat="50.093679" lon="6.811484">
        <time>2008-07-14T11:59:39Z</time>
      </trkpt>
      <trkpt lat="50.093678" lon="6.811665">
        <time>2008-07-14T11:59:39Z</time>
      </trkpt>
      <trkpt lat="50.093730" lon="6.811960">
        <time>2008-07-14T11:59:39Z</time>
      </trkpt>
      <trkpt lat="50.093906" lon="6.812494">
        <time>2008-07-14T11:59:39Z</time>
      </trkpt>
      <trkpt lat="50.093607" lon="6.812866">
        <time>2008-07-14T11:59:39Z</time>
      </trkpt>
      <trkpt lat="50.093607" lon="6.812866">
        <time>2008-07-14T11:59:39Z</time>
      </trkpt>
      <trkpt lat="50.093367" lon="6.812485">
        <time>2008-07-14T11:59:39Z</time>
      </trkpt>
      <trkpt lat="50.092961" lon="6.812618">
        <time>2008-07-14T11:59:39Z</time>
      </trkpt>
      <trkpt lat="50.092736" lon="6.812684">
        <time>2008-07-14T11:59:39Z</time>
      </trkpt>
    </trkseg>
  </trk>

</gpx>
